| time (UTC) | temp F | wind direction | speed knots | gust knots | rain 1hr in | rain 24hr in | rain mn in | humidity % | barometer mb |
| 20260503051004 | 58 | 6 | 0.0 | 0.0 | 0.00 | 0.00 | 0.00 | 63 | 1014.8 |
| 20260503050005 | 59 | 6 | 0.0 | 0.0 | 0.00 | 0.00 | 0.00 | 62 | 1014.6 |
| 20260503045004 | 60 | 2 | 0.0 | 0.0 | 0.00 | 0.00 | 0.00 | 61 | 1014.6 |
| 20260503044004 | 60 | 1 | 0.0 | 0.0 | 0.00 | 0.00 | 0.00 | 59 | 1014.4 |
| 20260503043004 | 61 | 2 | 0.0 | 0.0 | 0.00 | 0.00 | 0.00 | 58 | 1014.3 |
| 20260503041005 | 62 | 354 | 0.0 | 0.9 | 0.00 | 0.00 | 0.00 | 55 | 1014.0 |
| 20260503040005 | 62 | 359 | 0.0 | 1.7 | 0.00 | 0.00 | 0.00 | 56 | 1013.8 |
| 20260503035004 | 63 | 357 | 1.7 | 2.6 | 0.00 | 0.00 | 0.00 | 55 | 1013.6 |
| 20260503034007 | 63 | 57 | 0.0 | 0.9 | 0.00 | 0.00 | 0.00 | 55 | 1013.5 |
| 20260503033004 | 64 | 15 | 0.0 | 5.2 | 0.00 | 0.00 | 0.00 | 53 | 1013.3 |
| 20260503032004 | 64 | 5 | 1.7 | 2.6 | 0.00 | 0.00 | 0.00 | 53 | 1013.1 |
| 20260503031004 | 65 | 24 | 0.9 | 2.6 | 0.00 | 0.00 | 0.00 | 52 | 1013.0 |
| 20260503025004 | 67 | 39 | 0.9 | 2.6 | 0.00 | 0.00 | 0.00 | 53 | 1012.8 |
| 20260503023004 | 69 | 359 | 0.9 | 1.7 | 0.00 | 0.00 | 0.00 | 52 | 1012.7 |
| 20260503021004 | 71 | 288 | 0.0 | 0.9 | 0.00 | 0.00 | 0.00 | 49 | 1012.5 |
| 20260503020013 | 72 | 287 | 0.0 | 0.0 | 0.00 | 0.00 | 0.00 | 49 | 1012.4 |
| 20260503015004 | 73 | 287 | 0.9 | 1.7 | 0.00 | 0.00 | 0.00 | 47 | 1012.3 |
| 20260503014004 | 74 | 286 | 0.0 | 0.0 | 0.00 | 0.00 | 0.00 | 44 | 1012.3 |
| 20260503013004 | 74 | 286 | 0.0 | 0.9 | 0.00 | 0.00 | 0.00 | 37 | 1012.3 |
| 20260503012004 | 75 | 286 | 0.9 | 0.9 | 0.00 | 0.00 | 0.00 | 37 | 1012.4 |
| 20260503011004 | 76 | 286 | 0.0 | 0.0 | 0.00 | 0.00 | 0.00 | 36 | 1012.4 |
| 20260503010004 | 76 | 286 | 0.0 | 0.0 | 0.00 | 0.00 | 0.00 | 40 | 1012.4 |
| 20260503005004 | 77 | 286 | 0.0 | 0.9 | 0.00 | 0.00 | 0.00 | 37 | 1012.4 |
| 20260503003004 | 77 | 286 | 0.0 | 0.0 | 0.00 | 0.00 | 0.00 | 32 | 1012.5 |
| 20260503002004 | 78 | 286 | 0.0 | 0.0 | 0.00 | 0.00 | 0.00 | 30 | 1012.4 |
| 20260503001004 | 81 | 287 | 0.9 | 2.6 | 0.00 | 0.00 | 0.00 | 28 | 1012.5 |
| 20260503000004 | 83 | 204 | 2.6 | 7.0 | 0.00 | 0.00 | 0.00 | 26 | 1012.6 |
| 20260502235004 | 82 | 71 | 0.0 | 1.7 | 0.00 | 0.00 | 0.00 | 23 | 1012.6 |
| 20260502234004 | 82 | 187 | 1.7 | 5.2 | 0.00 | 0.00 | 0.00 | 26 | 1012.7 |
| 20260502233004 | 81 | 198 | 1.7 | 6.1 | 0.00 | 0.00 | 0.00 | 23 | 1012.8 |
| 20260502232005 | 81 | 273 | 1.7 | 6.1 | 0.00 | 0.00 | 0.00 | 23 | 1012.9 |
| 20260502231005 | 81 | 224 | 2.6 | 6.1 | 0.00 | 0.00 | 0.00 | 23 | 1012.9 |
| 20260502230005 | 81 | 233 | 2.6 | 2.6 | 0.00 | 0.00 | 0.00 | 20 | 1013.0 |
| 20260502225005 | 80 | 266 | 2.6 | 5.2 | 0.00 | 0.00 | 0.00 | 20 | 1013.2 |
| 20260502224005 | 81 | 183 | 2.6 | 6.1 | 0.00 | 0.00 | 0.00 | 24 | 1013.2 |
| 20260502223006 | 81 | 180 | 2.6 | 5.2 | 0.00 | 0.00 | 0.00 | 26 | 1013.4 |
| 20260502222005 | 81 | 159 | 2.6 | 5.2 | 0.00 | 0.00 | 0.00 | 22 | 1013.5 |
| 20260502221006 | 81 | 106 | 5.2 | 7.0 | 0.00 | 0.00 | 0.00 | 22 | 1013.6 |
| 20260502214005 | 81 | 191 | 1.7 | 5.2 | 0.00 | 0.00 | 0.00 | 27 | 1014.0 |
| 20260502213004 | 80 | 322 | 3.5 | 6.1 | 0.00 | 0.00 | 0.00 | 22 | 1014.2 |
| 20260502212006 | 80 | 107 | 2.6 | 7.0 | 0.00 | 0.00 | 0.00 | 26 | 1014.2 |
| 20260502211005 | 80 | 207 | 5.2 | 7.0 | 0.00 | 0.00 | 0.00 | 26 | 1014.4 |
| 20260502210005 | 79 | 280 | 0.9 | 7.0 | 0.00 | 0.00 | 0.00 | 31 | 1014.5 |
| 20260502205005 | 78 | 185 | 0.9 | 7.0 | 0.00 | 0.00 | 0.00 | 32 | 1014.6 |
| 20260502204005 | 78 | 289 | 4.3 | 7.0 | 0.00 | 0.00 | 0.00 | 33 | 1014.7 |
| 20260502203005 | 77 | 258 | 1.7 | 5.2 | 0.00 | 0.00 | 0.00 | 33 | 1014.9 |
| 20260502202005 | 76 | 132 | 3.5 | 5.2 | 0.00 | 0.00 | 0.00 | 40 | 1015.0 |
| 20260502201005 | 75 | 220 | 2.6 | 5.2 | 0.00 | 0.00 | 0.00 | 38 | 1015.0 |
| 20260502200005 | 75 | 107 | 2.6 | 5.2 | 0.00 | 0.00 | 0.00 | 42 | 1015.1 |
| 20260502194005 | 74 | 241 | 2.6 | 5.2 | 0.00 | 0.00 | 0.00 | 44 | 1015.3 |
| 20260502193005 | 73 | 114 | 2.6 | 5.2 | 0.00 | 0.00 | 0.00 | 44 | 1015.4 |
| 20260502192006 | 72 | 168 | 0.9 | 5.2 | 0.00 | 0.00 | 0.00 | 46 | 1015.7 |
| 20260502191007 | 72 | 222 | 4.3 | 6.1 | 0.00 | 0.00 | 0.00 | 46 | 1015.8 |
| 20260502190005 | 71 | 186 | 2.6 | 5.2 | 0.00 | 0.00 | 0.00 | 44 | 1015.8 |
| 20260502185005 | 70 | 151 | 1.7 | 2.6 | 0.00 | 0.00 | 0.00 | 45 | 1016.0 |
| 20260502184005 | 70 | 49 | 3.5 | 6.1 | 0.00 | 0.00 | 0.00 | 45 | 1016.1 |
| 20260502183005 | 69 | 7 | 2.6 | 2.6 | 0.00 | 0.00 | 0.00 | 45 | 1016.3 |
| 20260502182005 | 68 | 171 | 2.6 | 5.2 | 0.00 | 0.00 | 0.00 | 46 | 1016.4 |
| 20260502181005 | 68 | 223 | 4.3 | 6.1 | 0.00 | 0.00 | 0.00 | 48 | 1016.6 |
| 20260502164005 | 61 | 192 | 4.3 | 7.8 | 0.00 | 0.00 | 0.00 | 64 | 1017.5 |
| 20260502163005 | 60 | 187 | 4.3 | 6.1 | 0.00 | 0.00 | 0.00 | 67 | 1017.5 |
| 20260502162005 | 59 | 163 | 1.7 | 5.2 | 0.00 | 0.00 | 0.00 | 69 | 1017.6 |
| 20260502161005 | 58 | 141 | 1.7 | 2.6 | 0.00 | 0.00 | 0.00 | 73 | 1017.8 |
| 20260502152005 | 53 | 198 | 2.6 | 2.6 | 0.00 | 0.00 | 0.00 | 79 | 1018.4 |
| 20260502151004 | 52 | 129 | 0.0 | 2.6 | 0.00 | 0.00 | 0.00 | 80 | 1018.5 |
| 20260502123005 | 43 | 359 | 0.0 | 0.0 | 0.00 | 0.00 | 0.00 | 87 | 1018.9 |
| 20260502122005 | 43 | 359 | 0.0 | 0.0 | 0.00 | 0.00 | 0.00 | 87 | 1018.8 |
| 20260502114005 | 45 | 359 | 0.0 | 0.0 | 0.00 | 0.00 | 0.00 | 85 | 1018.6 |
| 20260502113005 | 45 | 359 | 0.0 | 0.0 | 0.00 | 0.00 | 0.00 | 85 | 1018.7 |
| 20260502112005 | 45 | 359 | 0.0 | 0.0 | 0.00 | 0.00 | 0.00 | 85 | 1018.6 |
| 20260502111005 | 45 | 341 | 0.0 | 0.0 | 0.00 | 0.00 | 0.00 | 85 | 1018.6 |
| 20260502110005 | 45 | 359 | 0.0 | 0.0 | 0.00 | 0.00 | 0.00 | 85 | 1018.7 |
| 20260502105005 | 46 | 359 | 0.0 | 0.0 | 0.00 | 0.00 | 0.00 | 84 | 1018.7 |
| 20260502104005 | 46 | 359 | 0.0 | 0.0 | 0.00 | 0.00 | 0.00 | 84 | 1018.6 |
| 20260502103005 | 46 | 359 | 0.0 | 0.0 | 0.00 | 0.00 | 0.00 | 84 | 1018.4 |
| 20260502102004 | 46 | 359 | 0.0 | 0.0 | 0.00 | 0.00 | 0.00 | 83 | 1018.2 |
| 20260502101004 | 46 | 359 | 0.0 | 0.0 | 0.00 | 0.00 | 0.00 | 83 | 1018.2 |
| 20260502091005 | 48 | 359 | 0.0 | 0.0 | 0.00 | 0.00 | 0.00 | 79 | 1018.1 |
| 20260502071004 | 52 | 341 | 0.0 | 0.0 | 0.00 | 0.00 | 0.00 | 69 | 1017.7 |
| 20260502070004 | 52 | 341 | 0.0 | 0.0 | 0.00 | 0.00 | 0.00 | 69 | 1017.6 |
| 20260502065005 | 53 | 341 | 0.0 | 0.0 | 0.00 | 0.00 | 0.00 | 68 | 1017.5 |
| 20260502064005 | 53 | 341 | 0.0 | 0.0 | 0.00 | 0.00 | 0.00 | 66 | 1017.5 |
| 20260502063005 | 53 | 341 | 0.0 | 0.0 | 0.00 | 0.00 | 0.00 | 66 | 1017.4 |
| 20260502062005 | 54 | 19 | 0.0 | 0.0 | 0.00 | 0.00 | 0.00 | 64 | 1017.3 |
| 20260502061005 | 54 | 19 | 0.0 | 0.0 | 0.00 | 0.00 | 0.00 | 65 | 1017.3 |
| 20260502055005 | 55 | 19 | 0.0 | 0.0 | 0.00 | 0.00 | 0.00 | 62 | 1017.1 |
| 20260502054005 | 56 | 359 | 0.0 | 0.0 | 0.00 | 0.00 | 0.00 | 61 | 1017.0 |
| 20260502053005 | 56 | 0 | 0.0 | 0.0 | 0.00 | 0.00 | 0.00 | 61 | 1016.9 |
| 20260502052005 | 57 | 0 | 0.0 | 0.0 | 0.00 | 0.00 | 0.00 | 59 | 1016.9 |